TimeCDT,TemperatureF,Dew PointF,Humidity,Sea Level PressureIn,VisibilityMPH,Wind Direction,Wind SpeedMPH,Gust SpeedMPH,PrecipitationIn,Events,Conditions,WindDirDegrees,DateUTC
12:15 AM,75.2,57.2,53,30.10,5.0,Calm,Calm,-,N/A,,Haze,0,2013-08-21 05:15:00
12:35 AM,75.2,57.2,53,30.10,6.0,ESE,3.5,-,N/A,,Haze,120,2013-08-21 05:35:00
12:55 AM,75.2,57.2,53,30.09,5.0,Calm,Calm,-,N/A,,Haze,0,2013-08-21 05:55:00
1:15 AM,75.2,57.2,53,30.09,6.0,Calm,Calm,-,N/A,,Haze,0,2013-08-21 06:15:00
1:35 AM,73.4,57.2,57,30.09,3.0,Calm,Calm,-,N/A,,Haze,0,2013-08-21 06:35:00
1:55 AM,73.4,57.2,57,30.09,1.8,Calm,Calm,-,N/A,,Haze,0,2013-08-21 06:55:00
2:15 AM,71.6,55.4,57,30.09,1.2,Calm,Calm,-,N/A,,Haze,0,2013-08-21 07:15:00
2:35 AM,73.4,55.4,53,30.09,0.5,Calm,Calm,-,N/A,,Haze,0,2013-08-21 07:35:00
2:55 AM,71.6,55.4,57,30.10,0.8,Calm,Calm,-,N/A,,Haze,0,2013-08-21 07:55:00
3:15 AM,71.6,55.4,57,30.10,0.8,North,3.5,-,N/A,,Haze,350,2013-08-21 08:15:00
3:35 AM,71.6,55.4,57,30.10,1.0,Calm,Calm,-,N/A,,Haze,0,2013-08-21 08:35:00
3:55 AM,71.6,55.4,57,30.10,3.0,Calm,Calm,-,N/A,,Haze,0,2013-08-21 08:55:00
4:15 AM,71.6,55.4,57,30.10,3.0,Calm,Calm,-,N/A,,Haze,0,2013-08-21 09:15:00
4:35 AM,73.4,57.2,57,30.10,3.0,Calm,Calm,-,N/A,,Haze,0,2013-08-21 09:35:00
4:55 AM,73.4,57.2,57,30.11,4.0,Calm,Calm,-,N/A,,Haze,0,2013-08-21 09:55:00
5:15 AM,73.4,55.4,53,30.12,1.8,Calm,Calm,-,N/A,,Haze,0,2013-08-21 10:15:00
5:35 AM,73.4,55.4,53,30.12,1.8,Calm,Calm,-,N/A,,Haze,0,2013-08-21 10:35:00
5:55 AM,73.4,55.4,53,30.12,2.5,Calm,Calm,-,N/A,,Haze,0,2013-08-21 10:55:00
6:15 AM,73.4,55.4,53,30.13,2.5,Calm,Calm,-,N/A,,Haze,0,2013-08-21 11:15:00
6:35 AM,73.4,55.4,53,30.14,2.5,Calm,Calm,-,N/A,,Haze,0,2013-08-21 11:35:00
6:55 AM,73.4,55.4,53,30.15,2.0,ESE,4.6,-,N/A,,Haze,110,2013-08-21 11:55:00
7:15 AM,73.4,57.2,57,30.16,3.0,SE,3.5,-,N/A,,Haze,130,2013-08-21 12:15:00
7:35 AM,75.2,57.2,53,30.16,2.5,Calm,Calm,-,N/A,,Haze,0,2013-08-21 12:35:00
7:55 AM,75.2,59.0,57,30.17,4.0,Calm,Calm,-,N/A,,Haze,0,2013-08-21 12:55:00
8:15 AM,78.8,60.8,54,30.17,5.0,ESE,4.6,-,N/A,,Haze,110,2013-08-21 13:15:00
8:35 AM,78.8,60.8,54,30.17,5.0,SE,5.8,-,N/A,,Haze,130,2013-08-21 13:35:00
8:55 AM,78.8,62.6,57,30.17,6.0,Calm,Calm,-,N/A,,Haze,0,2013-08-21 13:55:00
9:15 AM,80.6,62.6,54,30.17,7.0,SSE,3.5,-,N/A,,Partly Cloudy,160,2013-08-21 14:15:00
9:35 AM,82.4,64.4,54,30.18,7.0,South,5.8,-,N/A,,Partly Cloudy,170,2013-08-21 14:35:00
9:55 AM,82.4,66.2,58,30.18,8.0,South,6.9,-,N/A,,Partly Cloudy,170,2013-08-21 14:55:00
10:15 AM,84.2,66.2,55,30.18,9.0,South,5.8,-,N/A,,Partly Cloudy,170,2013-08-21 15:15:00
10:35 AM,84.2,66.2,55,30.19,8.0,South,5.8,-,N/A,,Scattered Clouds,190,2013-08-21 15:35:00
10:55 AM,84.2,66.2,55,30.18,7.0,SSE,5.8,-,N/A,,Scattered Clouds,160,2013-08-21 15:55:00
11:15 AM,86.0,69.8,58,30.18,9.0,South,6.9,-,N/A,,Scattered Clouds,180,2013-08-21 16:15:00
11:35 AM,87.8,69.8,55,30.18,9.0,South,6.9,-,N/A,,Mostly Cloudy,190,2013-08-21 16:35:00
11:55 AM,89.6,71.6,55,30.17,9.0,South,8.1,-,N/A,,Mostly Cloudy,170,2013-08-21 16:55:00
12:15 PM,89.6,71.6,55,30.16,9.0,South,5.8,-,N/A,,Partly Cloudy,170,2013-08-21 17:15:00
12:35 PM,89.6,71.6,55,30.16,10.0,South,5.8,-,N/A,,Partly Cloudy,180,2013-08-21 17:35:00
12:55 PM,89.6,71.6,55,30.16,9.0,Calm,Calm,-,N/A,,Mostly Cloudy,0,2013-08-21 17:55:00
1:15 PM,91.4,73.4,55,30.16,10.0,South,5.8,-,N/A,,Mostly Cloudy,180,2013-08-21 18:15:00
1:35 PM,91.4,73.4,55,30.15,9.0,South,4.6,-,N/A,,Scattered Clouds,180,2013-08-21 18:35:00
1:55 PM,89.6,71.6,55,30.15,9.0,South,5.8,-,N/A,,Clear,170,2013-08-21 18:55:00
2:15 PM,89.6,71.6,55,30.14,8.0,South,6.9,-,N/A,,Scattered Clouds,180,2013-08-21 19:15:00
2:35 PM,91.4,73.4,55,30.12,9.0,SSE,4.6,-,N/A,,Clear,150,2013-08-21 19:35:00
2:55 PM,91.4,73.4,55,30.12,8.0,South,3.5,-,N/A,,Clear,180,2013-08-21 19:55:00
3:15 PM,91.4,73.4,55,30.12,9.0,Calm,Calm,-,N/A,,Clear,0,2013-08-21 20:15:00
3:35 PM,93.2,75.2,56,30.11,8.0,Calm,Calm,-,N/A,,Clear,0,2013-08-21 20:35:00
3:55 PM,93.2,75.2,56,30.10,9.0,Calm,Calm,-,N/A,,Partly Cloudy,0,2013-08-21 20:55:00
4:15 PM,93.2,75.2,56,30.09,8.0,SE,3.5,-,N/A,,Scattered Clouds,140,2013-08-21 21:15:00
4:35 PM,91.4,73.4,55,30.09,8.0,Calm,Calm,-,N/A,,Partly Cloudy,0,2013-08-21 21:35:00
4:55 PM,91.4,73.4,55,30.08,7.0,Calm,Calm,-,N/A,,Clear,0,2013-08-21 21:55:00
5:15 PM,91.4,73.4,55,30.07,8.0,South,4.6,-,N/A,,Clear,180,2013-08-21 22:15:00
5:35 PM,91.4,73.4,55,30.07,9.0,South,3.5,-,N/A,,Clear,190,2013-08-21 22:35:00
5:55 PM,89.6,71.6,55,30.07,9.0,Calm,Calm,-,N/A,,Clear,0,2013-08-21 22:55:00
6:15 PM,87.8,69.8,55,30.08,9.0,Calm,Calm,-,N/A,,Clear,0,2013-08-21 23:15:00
6:35 PM,89.6,71.6,55,30.09,9.0,Calm,Calm,-,N/A,,Clear,0,2013-08-21 23:35:00
6:55 PM,87.8,69.8,55,30.09,9.0,Calm,Calm,-,N/A,,Clear,0,2013-08-21 23:55:00
7:15 PM,87.8,69.8,55,30.09,8.0,Calm,Calm,-,N/A,,Clear,0,2013-08-22 00:15:00
7:35 PM,82.4,64.4,54,30.09,8.0,Calm,Calm,-,N/A,,Clear,0,2013-08-22 00:35:00
7:55 PM,80.6,64.4,58,30.10,10.0,Calm,Calm,-,N/A,,Clear,0,2013-08-22 00:55:00
8:15 PM,80.6,62.6,54,30.10,8.0,Calm,Calm,-,N/A,,Clear,0,2013-08-22 01:15:00
8:35 PM,78.8,62.6,57,30.11,7.0,SE,3.5,-,N/A,,Scattered Clouds,140,2013-08-22 01:35:00
8:55 PM,78.8,62.6,57,30.11,10.0,South,5.8,-,N/A,,Mostly Cloudy,170,2013-08-22 01:55:00
9:15 PM,78.8,60.8,54,30.13,10.0,SSE,5.8,-,N/A,,Partly Cloudy,150,2013-08-22 02:15:00
9:35 PM,78.8,60.8,54,30.15,10.0,ESE,8.1,-,N/A,,Scattered Clouds,110,2013-08-22 02:35:00
9:55 PM,77.0,60.8,57,30.15,10.0,East,6.9,17.3,N/A,,Mostly Cloudy,90,2013-08-22 02:55:00
10:15 PM,77.0,60.8,57,30.15,10.0,East,6.9,16.1,N/A,,Partly Cloudy,90,2013-08-22 03:15:00
10:35 PM,75.2,60.8,61,30.15,10.0,East,5.8,-,N/A,,Mostly Cloudy,90,2013-08-22 03:35:00
10:55 PM,75.2,59.0,57,30.13,10.0,ESE,3.5,-,N/A,,Partly Cloudy,110,2013-08-22 03:55:00
11:15 PM,75.2,59.0,57,30.12,10.0,Calm,Calm,-,N/A,,Clear,0,2013-08-22 04:15:00
11:35 PM,75.2,57.2,53,30.13,10.0,SW,3.5,-,N/A,,Clear,220,2013-08-22 04:35:00
11:55 PM,75.2,57.2,53,30.12,9.0,Calm,Calm,-,N/A,,Clear,0,2013-08-22 04:55:00